EW4113 Weather Reports


Display with metric or nautical units.
time (UTC)temp
F
wind
direction
speed
MPH
gust
MPH
rain 1hr
in
rain 24hr
in
rain mn
in
humidity
%
barometer
mb
20260502123017 0 0.0 0.0 0.00 0.00 0.00 983.5
20260502121511 0 0.0 0.0 0.00 0.00 0.00 983.4
20260502114505 0 0.0 0.0 0.00 0.00 0.00 983.2
20260502113057 0 0.0 0.0 0.00 0.00 0.00 983.0
20260502111552 0 0.0 0.0 0.00 0.00 0.00 983.0
20260502110055 0 0.0 0.0 0.00 0.00 0.00 983.0
20260502104546 0 0.0 0.0 0.00 0.00 0.00 983.0
20260502103037 0 0.0 0.0 0.00 0.00 0.00 982.9
20260502101529 0 0.0 0.0 0.00 0.00 0.00 982.8
20260502091518 74 294 0.0 0.0 0.00 0.00 0.00 24 982.5
20260502071535 73 259 0.0 0.0 0.00 0.00 0.00 26 981.9
20260502070046 72 236 0.0 0.0 0.00 0.00 0.00 26 981.8
20260502064530 72 195 0.0 0.0 0.00 0.00 0.00 29 981.8
20260502063033 74 194 0.0 0.0 0.00 0.00 0.00 25 981.6
20260502061529 74 185 0.0 0.0 0.00 0.00 0.00 27 981.6
20260502060031 74 72 0.0 0.0 0.00 0.00 0.00 26 981.3
20260502054527 74 59 0.0 0.0 0.00 0.00 0.00 31 981.2
20260502053026 75 51 0.0 0.0 0.00 0.00 0.00 30 981.2
20260502051530 76 139 0.0 0.0 0.00 0.00 0.00 26 981.2
20260502050025 77 64 0.0 0.0 0.00 0.00 0.00 28 981.0
20260502044522 76 59 0.0 0.0 0.00 0.00 0.00 30 981.0
20260502043022 76 47 0.0 0.0 0.00 0.00 0.00 25 980.9
20260502041522 77 56 0.0 0.0 0.00 0.00 0.00 28 980.7
20260502040032 78 75 0.0 0.0 0.00 0.00 0.00 27 980.6
20260502034519 79 118 0.0 0.0 0.00 0.00 0.00 23 980.5
20260502033017 80 110 0.0 0.0 0.00 0.00 0.00 22 980.3
20260502031517 81 127 0.0 0.0 0.00 0.00 0.00 22 980.1
20260502030017 82 82 0.0 0.0 0.00 0.00 0.00 21 979.9
20260502024534 83 77 0.0 0.0 0.00 0.00 0.00 21 979.8
20260502023105 84 70 0.0 0.0 0.00 0.00 0.00 20 979.6
20260502021546 84 82 0.0 0.0 0.00 0.00 0.00 20 979.5
20260502020045 85 77 0.0 0.0 0.00 0.00 0.00 19 979.3
20260502014544 86 57 0.0 1.0 0.00 0.00 0.00 19 979.3
20260502013041 86 60 0.0 0.0 0.00 0.00 0.00 19 979.2
20260502011543 87 100 0.0 0.0 0.00 0.00 0.00 19 979.2
20260502010009 87 75 0.0 1.0 0.00 0.00 0.00 19 979.3
20260502004509 88 131 0.0 0.0 0.00 0.00 0.00 17 979.3
20260502003005 87 155 0.0 0.0 0.00 0.00 0.00 20 979.3
20260502001504 87 57 0.0 0.0 0.00 0.00 0.00 20 979.4
20260502000003 88 77 0.0 0.0 0.00 0.00 0.00 21 979.5
20260501234501 88 131 0.0 10.0 0.00 0.00 0.00 21 979.6
20260501233058 88 35 0.0 0.0 0.00 0.00 0.00 22 979.7
20260501231602 88 120 0.0 0.0 0.00 0.00 0.00 21 979.8
20260501230056 87 85 0.0 0.0 0.00 0.00 0.00 22 979.8
20260501224555 88 210 0.0 0.0 0.00 0.00 0.00 21 980.1
20260501223107 86 61 0.0 0.0 0.00 0.00 0.00 23 980.2
20260501221550 86 162 0.0 11.0 0.00 0.00 0.00 24 980.6
20260501220048 86 42 0.0 0.0 0.00 0.00 0.00 22 980.6
20260501214548 87 77 0.0 1.0 0.00 0.00 0.00 21 980.9
20260501213016 87 146 0.0 0.0 0.00 0.00 0.00 21 981.2
20260501211514 85 88 0.0 0.0 0.00 0.00 0.00 19 981.5
20260501210011 85 219 0.0 0.0 0.00 0.00 0.00 22 981.6
20260501204508 85 134 0.0 0.0 0.00 0.00 0.00 23 981.8
20260501203024 83 72 0.0 0.0 0.00 0.00 0.00 25 982.0
20260501201507 83 191 0.0 0.0 0.00 0.00 0.00 23 982.2
20260501200036 83 135 0.0 1.0 0.00 0.00 0.00 26 982.3
20260501194534 83 66 0.0 0.0 0.00 0.00 0.00 27 982.4
20260501193031 82 124 0.0 0.0 0.00 0.00 0.00 28 982.7
20260501191529 82 138 0.0 1.0 0.00 0.00 0.00 28 982.9
20260501190040 81 118 0.0 0.0 0.00 0.00 0.00 28 983.1
20260501184549 81 58 0.0 0.0 0.00 0.00 0.00 29 983.3
20260501183022 79 293 0.0 0.0 0.00 0.00 0.00 30 983.5
20260501181521 80 82 0.0 3.0 0.00 0.00 0.00 30 983.7
20260501180023 79 23 0.0 0.0 0.00 0.00 0.00 31 983.9
20260501174520 79 132 0.0 0.0 0.00 0.00 0.00 34 984.0
20260501173056 77 60 0.0 0.0 0.00 0.00 0.00 34 984.2
20260501171542 77 339 0.0 0.0 0.00 0.00 0.00 33 984.2
20260501170040 76 56 0.0 0.0 0.00 0.00 0.00 34 984.2
20260501164552 76 91 0.0 0.0 0.00 0.00 0.00 35 984.1
20260501163040 76 99 0.0 0.0 0.00 0.00 0.00 35 984.1
20260501161535 75 83 0.0 0.0 0.00 0.00 0.00 36 984.1
20260501160002 75 89 0.0 0.0 0.00 0.00 0.00 37 984.1
20260501154600 74 133 0.0 0.0 0.00 0.00 0.00 37 983.9
20260501153028 74 125 0.0 1.0 0.00 0.00 0.00 38 983.8
20260501151533 74 62 0.0 0.0 0.00 0.00 0.00 39 983.6
20260501150053 73 41 0.0 0.0 0.00 0.00 0.00 38 983.5
20260501144549 73 153 0.0 0.0 0.00 0.00 0.00 40 983.4
20260501143045 72 295 0.0 0.0 0.00 0.00 0.00 42 983.3